Time,TemperatureF,DewpointF,PressureIn,WindDirection,WindDirectionDegrees,WindSpeedMPH,WindSpeedGustMPH,Humidity,HourlyPrecipIn,Conditions,Clouds,dailyrainin,SoftwareType,DateUTC
2013-06-06 00:00:00,52.4,49.8,30.04,ENE,58,3.0,8.0,91,0.00,,,0.00,Wunderground v.1.15,2013-06-06 05:00:00,
2013-06-06 00:05:00,52.4,49.8,30.04,NE,56,3.0,8.0,91,0.00,,,0.00,Wunderground v.1.15,2013-06-06 05:05:00,
2013-06-06 00:10:00,52.5,49.9,30.04,ENE,71,2.0,8.0,91,0.00,,,0.00,Wunderground v.1.15,2013-06-06 05:10:00,
2013-06-06 00:15:00,52.5,49.9,30.04,ENE,74,2.0,8.0,91,0.00,,,0.00,Wunderground v.1.15,2013-06-06 05:15:00,
2013-06-06 00:20:00,52.5,49.9,30.04,ENE,57,3.0,3.0,91,0.00,,,0.00,Wunderground v.1.15,2013-06-06 05:20:00,
2013-06-06 00:25:00,52.5,49.9,30.04,ENE,66,2.0,8.0,91,0.00,,,0.00,Wunderground v.1.15,2013-06-06 05:25:00,
2013-06-06 00:30:00,52.5,49.9,30.04,NE,41,2.0,8.0,91,0.00,,,0.00,Wunderground v.1.15,2013-06-06 05:30:00,
2013-06-06 00:35:00,52.5,49.9,30.04,ENE,61,3.0,8.0,91,0.00,,,0.00,Wunderground v.1.15,2013-06-06 05:35:00,
2013-06-06 00:40:00,52.5,49.9,30.04,ENE,76,2.0,8.0,91,0.00,,,0.00,Wunderground v.1.15,2013-06-06 05:40:00,
2013-06-06 00:45:00,52.4,49.8,30.03,ENE,67,2.0,8.0,91,0.00,,,0.00,Wunderground v.1.15,2013-06-06 05:45:00,
2013-06-06 00:50:00,52.4,49.8,30.03,ENE,67,2.0,2.0,91,0.00,,,0.00,Wunderground v.1.15,2013-06-06 05:50:00,
2013-06-06 00:55:00,52.4,49.8,30.03,ENE,75,3.0,3.0,91,0.00,,,0.00,Wunderground v.1.15,2013-06-06 05:55:00,
2013-06-06 01:00:00,52.4,49.8,30.03,ENE,59,4.0,4.0,91,0.00,,,0.00,Wunderground v.1.15,2013-06-06 06:00:00,
2013-06-06 01:05:00,52.4,49.6,30.03,East,87,3.0,5.0,90,0.00,,,0.00,Wunderground v.1.15,2013-06-06 06:05:00,
2013-06-06 01:10:00,52.4,49.6,30.03,ENE,61,2.0,2.0,90,0.00,,,0.00,Wunderground v.1.15,2013-06-06 06:10:00,
2013-06-06 01:15:00,52.3,49.5,30.03,East,98,2.0,4.0,90,0.00,,,0.00,Wunderground v.1.15,2013-06-06 06:15:00,
2013-06-06 01:20:00,52.3,49.5,30.02,East,86,2.0,8.0,90,0.00,,,0.00,Wunderground v.1.15,2013-06-06 06:20:00,
2013-06-06 01:25:00,52.3,49.5,30.02,NE,40,3.0,8.0,90,0.00,,,0.00,Wunderground v.1.15,2013-06-06 06:25:00,
2013-06-06 01:30:00,52.3,49.5,30.02,East,87,3.0,3.0,90,0.00,,,0.00,Wunderground v.1.15,2013-06-06 06:30:00,
2013-06-06 01:35:00,52.3,49.5,30.02,NE,38,4.0,4.0,90,0.00,,,0.00,Wunderground v.1.15,2013-06-06 06:35:00,
2013-06-06 01:40:00,52.3,49.5,30.02,NE,55,4.0,4.0,90,0.00,,,0.00,Wunderground v.1.15,2013-06-06 06:40:00,
2013-06-06 01:45:00,52.3,49.5,30.02,NE,49,4.0,8.0,90,0.00,,,0.00,Wunderground v.1.15,2013-06-06 06:45:00,
2013-06-06 01:50:00,52.3,49.5,30.02,East,86,4.0,8.0,90,0.00,,,0.00,Wunderground v.1.15,2013-06-06 06:50:00,
2013-06-06 01:55:00,52.3,49.5,30.02,ENE,63,4.0,8.0,90,0.00,,,0.00,Wunderground v.1.15,2013-06-06 06:55:00,
2013-06-06 02:00:00,52.2,49.4,30.02,NE,35,4.0,4.0,90,0.00,,,0.00,Wunderground v.1.15,2013-06-06 07:00:00,
2013-06-06 02:05:00,52.3,49.2,30.02,NE,52,3.0,8.0,89,0.00,,,0.00,Wunderground v.1.15,2013-06-06 07:05:00,
2013-06-06 02:10:00,52.3,49.2,30.02,NE,56,3.0,8.0,89,0.00,,,0.00,Wunderground v.1.15,2013-06-06 07:10:00,
2013-06-06 02:15:00,52.3,49.2,30.01,ENE,61,3.0,8.0,89,0.00,,,0.00,Wunderground v.1.15,2013-06-06 07:15:00,
2013-06-06 02:20:00,52.3,49.2,30.01,NE,50,3.0,8.0,89,0.00,,,0.00,Wunderground v.1.15,2013-06-06 07:20:00,
2013-06-06 02:25:00,52.3,49.2,30.01,NE,50,4.0,8.0,89,0.00,,,0.00,Wunderground v.1.15,2013-06-06 07:25:00,
2013-06-06 02:30:00,52.3,48.9,30.01,ENE,62,4.0,8.0,88,0.00,,,0.00,Wunderground v.1.15,2013-06-06 07:30:00,
2013-06-06 02:35:00,52.3,48.9,30.01,NE,49,4.0,8.0,88,0.00,,,0.00,Wunderground v.1.15,2013-06-06 07:35:00,
2013-06-06 02:40:00,52.4,48.9,30.00,ENE,63,4.0,4.0,88,0.00,,,0.00,Wunderground v.1.15,2013-06-06 07:40:00,
2013-06-06 02:50:00,52.4,48.6,30.00,ENE,58,3.0,3.0,87,0.00,,,0.00,Wunderground v.1.15,2013-06-06 07:50:00,
2013-06-06 02:55:00,52.5,48.7,30.00,NE,51,3.0,4.0,87,0.00,,,0.00,Wunderground v.1.15,2013-06-06 07:55:00,
2013-06-06 03:00:00,52.5,48.7,30.00,ENE,72,4.0,4.0,87,0.00,,,0.00,Wunderground v.1.15,2013-06-06 08:00:00,
2013-06-06 03:05:00,52.5,48.4,30.00,ESE,113,4.0,8.0,86,0.00,,,0.00,Wunderground v.1.15,2013-06-06 08:05:00,
2013-06-06 03:10:00,52.6,48.5,30.00,NE,46,4.0,4.0,86,0.00,,,0.00,Wunderground v.1.15,2013-06-06 08:10:00,
2013-06-06 03:15:00,52.6,48.5,30.00,ENE,66,4.0,6.0,86,0.00,,,0.00,Wunderground v.1.15,2013-06-06 08:15:00,
2013-06-06 03:20:00,52.6,48.8,29.99,NE,47,3.0,8.0,87,0.00,,,0.00,Wunderground v.1.15,2013-06-06 08:20:00,
2013-06-06 03:25:00,52.6,48.8,29.99,East,90,3.0,8.0,87,0.00,,,0.00,Wunderground v.1.15,2013-06-06 08:25:00,
2013-06-06 03:30:00,52.6,48.8,29.99,ENE,68,3.0,8.0,87,0.00,,,0.00,Wunderground v.1.15,2013-06-06 08:30:00,
2013-06-06 03:35:00,52.6,48.8,29.99,NE,49,2.0,8.0,87,0.00,,,0.00,Wunderground v.1.15,2013-06-06 08:35:00,
2013-06-06 03:40:00,52.6,48.2,29.99,ENE,71,3.0,3.0,85,0.00,,,0.00,Wunderground v.1.15,2013-06-06 08:40:00,
2013-06-06 03:45:00,52.6,48.2,29.99,East,80,3.0,8.0,85,0.00,,,0.00,Wunderground v.1.15,2013-06-06 08:45:00,
2013-06-06 03:50:00,52.7,48.3,29.99,NE,51,4.0,8.0,85,0.00,,,0.00,Wunderground v.1.15,2013-06-06 08:50:00,
2013-06-06 03:55:00,52.7,48.6,29.99,NE,55,4.0,8.0,86,0.00,,,0.00,Wunderground v.1.15,2013-06-06 08:55:00,
2013-06-06 04:00:00,52.6,48.8,30.00,NE,34,3.0,8.0,87,0.00,,,0.00,Wunderground v.1.15,2013-06-06 09:00:00,
2013-06-06 04:05:00,52.6,48.8,30.00,NNE,26,4.0,8.0,87,0.00,,,0.00,Wunderground v.1.15,2013-06-06 09:05:00,
2013-06-06 04:10:00,52.4,48.6,30.00,NE,55,4.0,8.0,87,0.00,,,0.00,Wunderground v.1.15,2013-06-06 09:10:00,
2013-06-06 04:20:00,52.3,48.5,30.00,NNE,29,4.0,8.0,87,0.00,,,0.00,Wunderground v.1.15,2013-06-06 09:20:00,
2013-06-06 04:25:00,52.2,48.8,30.00,NE,47,4.0,8.0,88,0.00,,,0.00,Wunderground v.1.15,2013-06-06 09:25:00,
2013-06-06 04:30:00,52.1,48.7,30.00,NE,44,4.0,8.0,88,0.00,,,0.00,Wunderground v.1.15,2013-06-06 09:30:00,
2013-06-06 04:40:00,51.7,48.6,30.00,ENE,72,4.0,8.0,89,0.00,,,0.01,Wunderground v.1.15,2013-06-06 09:40:00,
2013-06-06 04:45:00,51.5,48.7,30.00,ENE,60,4.0,8.0,90,0.00,,,0.01,Wunderground v.1.15,2013-06-06 09:45:00,
2013-06-06 04:50:00,51.3,48.5,30.00,ENE,77,4.0,4.0,90,0.04,,,0.02,Wunderground v.1.15,2013-06-06 09:50:00,
2013-06-06 05:00:00,51.0,48.5,30.01,NNE,26,4.0,4.0,91,0.05,,,0.03,Wunderground v.1.15,2013-06-06 10:00:00,
2013-06-06 05:05:00,50.8,48.3,30.01,NNE,19,4.0,8.0,91,0.05,,,0.03,Wunderground v.1.15,2013-06-06 10:05:00,
2013-06-06 05:15:00,50.6,48.1,30.01,NNE,32,4.0,8.0,91,0.04,,,0.04,Wunderground v.1.15,2013-06-06 10:15:00,
2013-06-06 05:20:00,50.5,48.0,30.01,NNE,29,4.0,8.0,91,0.04,,,0.04,Wunderground v.1.15,2013-06-06 10:20:00,
2013-06-06 05:25:00,50.5,48.3,30.01,NE,51,4.0,8.0,92,0.04,,,0.04,Wunderground v.1.15,2013-06-06 10:25:00,
2013-06-06 05:30:00,50.3,48.1,30.01,NNE,29,4.0,4.0,92,0.04,,,0.04,Wunderground v.1.15,2013-06-06 10:30:00,
2013-06-06 05:35:00,50.2,48.0,30.01,NNE,32,4.0,8.0,92,0.00,,,0.05,Wunderground v.1.15,2013-06-06 10:35:00,
2013-06-06 05:40:00,50.1,47.9,30.01,NE,53,3.0,3.0,92,0.00,,,0.05,Wunderground v.1.15,2013-06-06 10:40:00,
2013-06-06 05:50:00,49.7,47.5,30.01,NE,41,4.0,8.0,92,0.07,,,0.06,Wunderground v.1.15,2013-06-06 10:50:00,
2013-06-06 06:00:00,49.5,47.3,30.01,ENE,59,4.0,8.0,92,0.04,,,0.07,Wunderground v.1.15,2013-06-06 11:00:00,
2013-06-06 06:05:00,49.5,47.6,30.01,East,85,4.0,8.0,93,0.07,,,0.08,Wunderground v.1.15,2013-06-06 11:05:00,
2013-06-06 06:10:00,49.5,47.6,30.01,ENE,63,4.0,4.0,93,0.10,,,0.09,Wunderground v.1.15,2013-06-06 11:10:00,
2013-06-06 06:20:00,49.5,47.6,30.01,NE,51,4.0,8.0,93,0.14,,,0.11,Wunderground v.1.15,2013-06-06 11:20:00,
2013-06-06 06:25:00,49.5,47.6,30.01,NE,43,5.0,8.0,93,0.13,,,0.12,Wunderground v.1.15,2013-06-06 11:25:00,
2013-06-06 06:30:00,49.5,47.6,30.01,NE,40,5.0,8.0,93,0.06,,,0.12,Wunderground v.1.15,2013-06-06 11:30:00,
2013-06-06 06:35:00,49.6,47.7,30.01,NE,51,5.0,8.0,93,0.05,,,0.13,Wunderground v.1.15,2013-06-06 11:35:00,
2013-06-06 06:40:00,49.7,48.0,30.01,ENE,63,5.0,8.0,94,0.05,,,0.13,Wunderground v.1.15,2013-06-06 11:40:00,
2013-06-06 06:45:00,49.8,48.1,30.01,NE,39,5.0,8.0,94,0.05,,,0.13,Wunderground v.1.15,2013-06-06 11:45:00,
2013-06-06 06:50:00,49.8,48.1,30.01,ENE,61,5.0,5.0,94,0.04,,,0.13,Wunderground v.1.15,2013-06-06 11:50:00,
2013-06-06 06:55:00,49.8,47.9,30.01,NE,44,6.0,8.0,93,0.00,,,0.13,Wunderground v.1.15,2013-06-06 11:55:00,
2013-06-06 07:00:00,49.9,48.0,30.00,NE,42,6.0,6.0,93,0.00,,,0.13,Wunderground v.1.15,2013-06-06 12:00:00,
2013-06-06 07:05:00,50.0,48.1,30.00,East,92,6.0,9.0,93,0.00,,,0.13,Wunderground v.1.15,2013-06-06 12:05:00,
2013-06-06 07:10:00,50.0,48.1,30.00,ENE,57,6.0,8.0,93,0.00,,,0.13,Wunderground v.1.15,2013-06-06 12:10:00,
2013-06-06 07:15:00,50.1,48.2,30.01,ENE,65,6.0,8.0,93,0.00,,,0.13,Wunderground v.1.15,2013-06-06 12:15:00,
2013-06-06 07:20:00,50.3,48.4,30.01,NE,50,5.0,8.0,93,0.00,,,0.13,Wunderground v.1.15,2013-06-06 12:20:00,
2013-06-06 07:25:00,50.5,48.3,30.00,ENE,72,6.0,8.0,92,0.00,,,0.13,Wunderground v.1.15,2013-06-06 12:25:00,
2013-06-06 07:30:00,50.6,48.4,30.01,NE,54,6.0,8.0,92,0.00,,,0.13,Wunderground v.1.15,2013-06-06 12:30:00,
2013-06-06 07:35:00,50.8,48.6,30.01,NE,54,5.0,10.0,92,0.00,,,0.13,Wunderground v.1.15,2013-06-06 12:35:00,
2013-06-06 07:40:00,50.8,48.3,30.01,NE,42,5.0,8.0,91,0.00,,,0.13,Wunderground v.1.15,2013-06-06 12:40:00,
2013-06-06 07:45:00,50.8,48.3,30.02,NE,34,5.0,8.0,91,0.00,,,0.13,Wunderground v.1.15,2013-06-06 12:45:00,
2013-06-06 07:50:00,50.6,48.1,30.01,NE,55,6.0,11.0,91,0.00,,,0.13,Wunderground v.1.15,2013-06-06 12:50:00,
2013-06-06 07:55:00,50.6,47.8,30.01,NNE,25,6.0,11.0,90,0.00,,,0.13,Wunderground v.1.15,2013-06-06 12:55:00,
2013-06-06 08:00:00,50.5,47.7,30.01,ENE,67,6.0,6.0,90,0.00,,,0.13,Wunderground v.1.15,2013-06-06 13:00:00,
2013-06-06 08:05:00,50.5,48.0,30.01,North,11,5.0,8.0,91,0.00,,,0.13,Wunderground v.1.15,2013-06-06 13:05:00,
2013-06-06 08:15:00,50.4,47.6,30.01,East,81,4.0,8.0,90,0.00,,,0.13,Wunderground v.1.15,2013-06-06 13:15:00,
2013-06-06 08:20:00,50.4,47.6,30.01,East,83,5.0,8.0,90,0.00,,,0.13,Wunderground v.1.15,2013-06-06 13:20:00,
2013-06-06 08:25:00,50.5,47.7,30.01,NNE,29,6.0,8.0,90,0.00,,,0.13,Wunderground v.1.15,2013-06-06 13:25:00,
2013-06-06 08:30:00,50.6,47.8,30.01,NNE,22,5.0,5.0,90,0.00,,,0.13,Wunderground v.1.15,2013-06-06 13:30:00,
2013-06-06 08:35:00,50.6,47.5,30.02,NNE,28,5.0,8.0,89,0.00,,,0.13,Wunderground v.1.15,2013-06-06 13:35:00,
2013-06-06 08:40:00,50.7,47.6,30.02,East,81,5.0,5.0,89,0.00,,,0.13,Wunderground v.1.15,2013-06-06 13:40:00,
2013-06-06 08:45:00,50.8,47.7,30.01,NE,42,5.0,6.0,89,0.00,,,0.13,Wunderground v.1.15,2013-06-06 13:45:00,
2013-06-06 08:50:00,50.9,47.8,30.01,NE,49,4.0,8.0,89,0.00,,,0.13,Wunderground v.1.15,2013-06-06 13:50:00,
2013-06-06 08:55:00,50.9,47.8,30.01,NE,53,4.0,8.0,89,0.00,,,0.13,Wunderground v.1.15,2013-06-06 13:55:00,
2013-06-06 09:00:00,50.9,47.5,30.02,ENE,60,5.0,5.0,88,0.00,,,0.13,Wunderground v.1.15,2013-06-06 14:00:00,
2013-06-06 09:05:00,51.0,47.6,30.01,ENE,64,4.0,8.0,88,0.00,,,0.13,Wunderground v.1.15,2013-06-06 14:05:00,
2013-06-06 09:10:00,51.1,48.0,30.02,East,87,4.0,4.0,89,0.00,,,0.13,Wunderground v.1.15,2013-06-06 14:10:00,
2013-06-06 09:15:00,51.1,47.7,30.01,NE,56,5.0,5.0,88,0.00,,,0.13,Wunderground v.1.15,2013-06-06 14:15:00,
2013-06-06 09:20:00,51.2,48.1,30.01,ENE,61,6.0,8.0,89,0.00,,,0.13,Wunderground v.1.15,2013-06-06 14:20:00,
2013-06-06 09:25:00,51.2,47.8,30.01,NE,48,6.0,8.0,88,0.00,,,0.13,Wunderground v.1.15,2013-06-06 14:25:00,
2013-06-06 09:30:00,51.3,47.9,30.01,NE,51,6.0,6.0,88,0.00,,,0.13,Wunderground v.1.15,2013-06-06 14:30:00,
2013-06-06 09:35:00,51.3,47.6,30.01,NE,40,6.0,8.0,87,0.00,,,0.13,Wunderground v.1.15,2013-06-06 14:35:00,
2013-06-06 09:40:00,51.4,48.0,30.01,NE,39,6.0,11.0,88,0.00,,,0.13,Wunderground v.1.15,2013-06-06 14:40:00,
2013-06-06 09:45:00,51.6,48.2,30.01,NNE,31,6.0,11.0,88,0.00,,,0.13,Wunderground v.1.15,2013-06-06 14:45:00,
2013-06-06 09:50:00,51.7,48.3,30.01,NE,41,6.0,6.0,88,0.00,,,0.13,Wunderground v.1.15,2013-06-06 14:50:00,
2013-06-06 09:55:00,51.7,48.0,30.01,ENE,66,6.0,8.0,87,0.00,,,0.13,Wunderground v.1.15,2013-06-06 14:55:00,
2013-06-06 10:00:00,51.6,47.9,30.01,ENE,57,5.0,5.0,87,0.00,,,0.13,Wunderground v.1.15,2013-06-06 15:00:00,
2013-06-06 10:10:00,51.7,48.0,30.01,ENE,63,5.0,8.0,87,0.00,,,0.13,Wunderground v.1.15,2013-06-06 15:10:00,
2013-06-06 10:15:00,51.8,48.1,30.01,NE,51,5.0,8.0,87,0.00,,,0.13,Wunderground v.1.15,2013-06-06 15:15:00,
2013-06-06 10:20:00,51.8,47.7,30.01,ENE,78,4.0,8.0,86,0.00,,,0.13,Wunderground v.1.15,2013-06-06 15:20:00,
2013-06-06 10:25:00,51.8,48.1,30.01,East,98,4.0,8.0,87,0.00,,,0.13,Wunderground v.1.15,2013-06-06 15:25:00,
2013-06-06 10:35:00,51.6,47.5,30.02,NE,48,5.0,8.0,86,0.00,,,0.13,Wunderground v.1.15,2013-06-06 15:35:00,
2013-06-06 10:40:00,51.7,47.6,30.01,ENE,72,6.0,6.0,86,0.00,,,0.13,Wunderground v.1.15,2013-06-06 15:40:00,
2013-06-06 10:45:00,51.6,47.2,30.02,ENE,74,6.0,8.0,85,0.00,,,0.13,Wunderground v.1.15,2013-06-06 15:45:00,
2013-06-06 10:55:00,51.8,47.7,30.02,NE,46,5.0,8.0,86,0.00,,,0.13,Wunderground v.1.15,2013-06-06 15:55:00,
2013-06-06 11:00:00,51.8,47.4,30.02,NE,55,6.0,6.0,85,0.00,,,0.13,Wunderground v.1.15,2013-06-06 16:00:00,
2013-06-06 11:10:00,51.8,47.4,30.02,NNE,26,6.0,9.0,85,0.00,,,0.13,Wunderground v.1.15,2013-06-06 16:10:00,
2013-06-06 11:15:00,51.8,47.1,30.02,ENE,63,7.0,9.0,84,0.00,,,0.13,Wunderground v.1.15,2013-06-06 16:15:00,
2013-06-06 11:20:00,51.9,47.2,30.02,ENE,66,6.0,8.0,84,0.00,,,0.13,Wunderground v.1.15,2013-06-06 16:20:00,
2013-06-06 11:25:00,52.1,47.4,30.01,NE,43,6.0,8.0,84,0.00,,,0.13,Wunderground v.1.15,2013-06-06 16:25:00,
2013-06-06 11:30:00,52.0,47.3,30.02,NE,43,7.0,8.0,84,0.00,,,0.13,Wunderground v.1.15,2013-06-06 16:30:00,
2013-06-06 11:40:00,52.0,47.0,30.02,ENE,59,8.0,8.0,83,0.00,,,0.13,Wunderground v.1.15,2013-06-06 16:40:00,
2013-06-06 11:45:00,52.2,47.2,30.02,ENE,63,7.0,8.0,83,0.00,,,0.13,Wunderground v.1.15,2013-06-06 16:45:00,
2013-06-06 11:50:00,52.1,47.1,30.02,NE,40,8.0,8.0,83,0.00,,,0.13,Wunderground v.1.15,2013-06-06 16:50:00,
2013-06-06 11:55:00,52.2,47.2,30.01,ENE,71,9.0,9.0,83,0.00,,,0.13,Wunderground v.1.15,2013-06-06 16:55:00,
2013-06-06 12:00:00,52.4,47.1,30.01,NE,51,8.0,8.0,82,0.00,,,0.13,Wunderground v.1.15,2013-06-06 17:00:00,
2013-06-06 12:05:00,52.6,47.3,30.02,East,80,8.0,8.0,82,0.00,,,0.13,Wunderground v.1.15,2013-06-06 17:05:00,
2013-06-06 12:10:00,52.7,47.0,30.01,NNE,32,8.0,8.0,81,0.00,,,0.13,Wunderground v.1.15,2013-06-06 17:10:00,
2013-06-06 12:15:00,52.7,47.0,30.01,ENE,61,9.0,10.0,81,0.00,,,0.13,Wunderground v.1.15,2013-06-06 17:15:00,
2013-06-06 12:25:00,52.8,47.1,30.01,North,5,10.0,12.0,81,0.00,,,0.13,Wunderground v.1.15,2013-06-06 17:25:00,
2013-06-06 12:30:00,53.0,47.0,30.01,NNE,19,10.0,10.0,80,0.00,,,0.13,Wunderground v.1.15,2013-06-06 17:30:00,
2013-06-06 12:35:00,53.1,47.1,30.01,NE,52,9.0,10.0,80,0.00,,,0.13,Wunderground v.1.15,2013-06-06 17:35:00,
2013-06-06 12:40:00,53.3,47.3,30.01,NNE,25,9.0,9.0,80,0.00,,,0.13,Wunderground v.1.15,2013-06-06 17:40:00,
2013-06-06 12:45:00,53.7,47.3,30.02,North,10,8.0,9.0,79,0.00,,,0.13,Wunderground v.1.15,2013-06-06 17:45:00,
2013-06-06 12:50:00,53.9,47.5,30.02,NE,46,8.0,8.0,79,0.00,,,0.13,Wunderground v.1.15,2013-06-06 17:50:00,
2013-06-06 12:55:00,54.2,47.8,30.01,NNE,29,7.0,8.0,79,0.00,,,0.13,Wunderground v.1.15,2013-06-06 17:55:00,
2013-06-06 13:00:00,54.6,47.5,30.01,NE,46,5.0,8.0,77,0.00,,,0.13,Wunderground v.1.15,2013-06-06 18:00:00,
2013-06-06 13:05:00,54.6,47.2,30.01,East,79,6.0,10.0,76,0.00,,,0.13,Wunderground v.1.15,2013-06-06 18:05:00,
2013-06-06 13:10:00,54.6,47.2,30.01,NNE,29,7.0,7.0,76,0.00,,,0.13,Wunderground v.1.15,2013-06-06 18:10:00,
2013-06-06 13:15:00,54.6,46.8,30.01,ENE,65,8.0,11.0,75,0.00,,,0.13,Wunderground v.1.15,2013-06-06 18:15:00,
2013-06-06 13:20:00,54.8,47.4,30.01,NE,34,7.0,7.0,76,0.00,,,0.13,Wunderground v.1.15,2013-06-06 18:20:00,
2013-06-06 13:25:00,54.9,47.5,30.01,ESE,104,7.0,8.0,76,0.00,,,0.13,Wunderground v.1.15,2013-06-06 18:25:00,
2013-06-06 13:30:00,55.2,47.8,30.01,NE,42,7.0,11.0,76,0.00,,,0.13,Wunderground v.1.15,2013-06-06 18:30:00,
2013-06-06 13:35:00,55.3,47.9,30.01,East,80,6.0,11.0,76,0.00,,,0.13,Wunderground v.1.15,2013-06-06 18:35:00,
2013-06-06 13:40:00,55.4,47.6,30.01,ENE,70,7.0,7.0,75,0.00,,,0.13,Wunderground v.1.15,2013-06-06 18:40:00,
2013-06-06 13:45:00,55.5,47.3,30.01,NE,56,8.0,8.0,74,0.00,,,0.13,Wunderground v.1.15,2013-06-06 18:45:00,
2013-06-06 13:50:00,55.6,47.1,30.01,NE,55,9.0,9.0,73,0.00,,,0.13,Wunderground v.1.15,2013-06-06 18:50:00,
2013-06-06 14:00:00,56.1,47.2,30.01,NNE,33,8.0,11.0,72,0.00,,,0.13,Wunderground v.1.15,2013-06-06 19:00:00,
2013-06-06 14:05:00,55.8,46.9,30.01,ENE,65,9.0,11.0,72,0.00,,,0.13,Wunderground v.1.15,2013-06-06 19:05:00,
2013-06-06 14:10:00,55.8,46.5,30.01,ENE,61,10.0,13.0,71,0.00,,,0.13,Wunderground v.1.15,2013-06-06 19:10:00,
2013-06-06 14:15:00,56.0,46.0,30.00,ENE,59,9.0,13.0,69,0.00,,,0.13,Wunderground v.1.15,2013-06-06 19:15:00,
2013-06-06 14:20:00,56.3,47.0,30.00,East,86,8.0,10.0,71,0.00,,,0.13,Wunderground v.1.15,2013-06-06 19:20:00,
2013-06-06 14:25:00,56.4,46.7,30.01,ENE,60,7.0,10.0,70,0.00,,,0.13,Wunderground v.1.15,2013-06-06 19:25:00,
2013-06-06 14:30:00,56.1,46.8,30.01,ENE,76,7.0,11.0,71,0.00,,,0.13,Wunderground v.1.15,2013-06-06 19:30:00,
2013-06-06 14:35:00,55.7,46.1,30.00,NE,50,8.0,11.0,70,0.00,,,0.13,Wunderground v.1.15,2013-06-06 19:35:00,
2013-06-06 14:40:00,55.9,46.3,30.00,East,89,8.0,8.0,70,0.00,,,0.13,Wunderground v.1.15,2013-06-06 19:40:00,
2013-06-06 14:45:00,55.9,46.3,30.00,ENE,64,7.0,8.0,70,0.00,,,0.13,Wunderground v.1.15,2013-06-06 19:45:00,
2013-06-06 14:55:00,56.1,46.4,30.00,NNE,23,7.0,9.0,70,0.00,,,0.13,Wunderground v.1.15,2013-06-06 19:55:00,
2013-06-06 15:00:00,56.0,46.4,30.00,NE,39,7.0,7.0,70,0.00,,,0.13,Wunderground v.1.15,2013-06-06 20:00:00,
2013-06-06 15:05:00,56.1,46.1,30.00,ENE,67,7.0,8.0,69,0.00,,,0.13,Wunderground v.1.15,2013-06-06 20:05:00,
2013-06-06 15:10:00,56.3,46.3,30.00,ENE,67,6.0,8.0,69,0.00,,,0.13,Wunderground v.1.15,2013-06-06 20:10:00,
2013-06-06 15:15:00,56.1,46.4,30.00,ENE,57,7.0,13.0,70,0.00,,,0.13,Wunderground v.1.15,2013-06-06 20:15:00,
2013-06-06 15:20:00,56.0,46.7,30.00,ENE,58,8.0,10.0,71,0.00,,,0.13,Wunderground v.1.15,2013-06-06 20:20:00,
2013-06-06 15:30:00,56.1,46.8,30.00,NE,49,6.0,8.0,71,0.00,,,0.13,Wunderground v.1.15,2013-06-06 20:30:00,
2013-06-06 15:35:00,56.2,46.9,30.00,ENE,57,6.0,8.0,71,0.00,,,0.13,Wunderground v.1.15,2013-06-06 20:35:00,
2013-06-06 15:45:00,56.5,46.1,29.99,NE,34,6.0,10.0,68,0.00,,,0.13,Wunderground v.1.15,2013-06-06 20:45:00,
2013-06-06 15:50:00,56.7,45.5,29.99,NE,42,7.0,8.0,66,0.00,,,0.13,Wunderground v.1.15,2013-06-06 20:50:00,
2013-06-06 16:00:00,57.1,45.4,29.99,NE,39,6.0,10.0,65,0.00,,,0.13,Wunderground v.1.15,2013-06-06 21:00:00,
2013-06-06 16:05:00,57.3,45.2,29.99,NE,51,6.0,10.0,64,0.00,,,0.13,Wunderground v.1.15,2013-06-06 21:05:00,
2013-06-06 16:10:00,57.3,45.2,29.99,NNE,30,6.0,6.0,64,0.00,,,0.13,Wunderground v.1.15,2013-06-06 21:10:00,
2013-06-06 16:15:00,57.4,44.5,29.99,ENE,60,5.0,8.0,62,0.00,,,0.13,Wunderground v.1.15,2013-06-06 21:15:00,
2013-06-06 16:20:00,57.4,44.5,29.99,NE,51,5.0,8.0,62,0.00,,,0.13,Wunderground v.1.15,2013-06-06 21:20:00,
2013-06-06 16:25:00,57.4,44.5,29.99,NE,41,5.0,8.0,62,0.00,,,0.13,Wunderground v.1.15,2013-06-06 21:25:00,
2013-06-06 16:30:00,57.4,44.1,29.99,NNE,19,5.0,8.0,61,0.00,,,0.13,Wunderground v.1.15,2013-06-06 21:30:00,
2013-06-06 16:35:00,57.4,44.5,29.99,ENE,60,5.0,8.0,62,0.00,,,0.13,Wunderground v.1.15,2013-06-06 21:35:00,
2013-06-06 16:40:00,57.3,44.0,29.99,ENE,63,6.0,8.0,61,0.00,,,0.13,Wunderground v.1.15,2013-06-06 21:40:00,
2013-06-06 16:45:00,57.2,44.3,29.99,NE,46,5.0,8.0,62,0.00,,,0.13,Wunderground v.1.15,2013-06-06 21:45:00,
2013-06-06 16:50:00,57.2,44.3,29.99,NE,52,4.0,4.0,62,0.00,,,0.13,Wunderground v.1.15,2013-06-06 21:50:00,
2013-06-06 16:55:00,57.2,44.3,30.00,ENE,57,4.0,8.0,62,0.00,,,0.13,Wunderground v.1.15,2013-06-06 21:55:00,
2013-06-06 17:00:00,57.2,44.3,29.99,NE,43,4.0,4.0,62,0.00,,,0.13,Wunderground v.1.15,2013-06-06 22:00:00,
2013-06-06 17:05:00,57.2,44.3,30.00,NE,44,4.0,6.0,62,0.00,,,0.13,Wunderground v.1.15,2013-06-06 22:05:00,
2013-06-06 17:10:00,57.1,44.2,30.00,NE,46,5.0,5.0,62,0.00,,,0.13,Wunderground v.1.15,2013-06-06 22:10:00,
2013-06-06 17:15:00,57.1,43.8,30.00,NE,49,4.0,6.0,61,0.00,,,0.13,Wunderground v.1.15,2013-06-06 22:15:00,
2013-06-06 17:20:00,57.2,44.3,30.00,NNE,25,4.0,8.0,62,0.00,,,0.13,Wunderground v.1.15,2013-06-06 22:20:00,
2013-06-06 17:25:00,57.3,44.4,30.00,NE,55,4.0,8.0,62,0.00,,,0.13,Wunderground v.1.15,2013-06-06 22:25:00,
2013-06-06 17:30:00,57.3,44.4,30.00,ENE,64,3.0,3.0,62,0.00,,,0.13,Wunderground v.1.15,2013-06-06 22:30:00,
2013-06-06 17:35:00,57.3,43.5,30.00,NE,53,3.0,5.0,60,0.00,,,0.13,Wunderground v.1.15,2013-06-06 22:35:00,
2013-06-06 17:40:00,57.3,43.5,30.00,NNE,20,4.0,8.0,60,0.00,,,0.13,Wunderground v.1.15,2013-06-06 22:40:00,
2013-06-06 17:45:00,57.3,43.5,29.99,NNE,26,3.0,8.0,60,0.00,,,0.13,Wunderground v.1.15,2013-06-06 22:45:00,
2013-06-06 17:50:00,57.3,43.5,29.99,NE,39,2.0,2.0,60,0.00,,,0.13,Wunderground v.1.15,2013-06-06 22:50:00,
2013-06-06 17:55:00,57.3,43.1,29.99,NE,51,2.0,4.0,59,0.00,,,0.13,Wunderground v.1.15,2013-06-06 22:55:00,
2013-06-06 18:00:00,57.3,43.1,29.99,NE,47,2.0,8.0,59,0.00,,,0.13,Wunderground v.1.15,2013-06-06 23:00:00,
2013-06-06 18:05:00,57.2,43.0,29.99,NE,47,3.0,8.0,59,0.00,,,0.13,Wunderground v.1.15,2013-06-06 23:05:00,
2013-06-06 18:10:00,57.2,41.6,29.99,NE,41,3.0,8.0,56,0.00,,,0.13,Wunderground v.1.15,2013-06-06 23:10:00,
2013-06-06 18:15:00,57.2,42.1,29.99,NE,56,4.0,8.0,57,0.00,,,0.13,Wunderground v.1.15,2013-06-06 23:15:00,
2013-06-06 18:20:00,57.2,42.5,29.99,NNE,18,4.0,8.0,58,0.00,,,0.13,Wunderground v.1.15,2013-06-06 23:20:00,
2013-06-06 18:25:00,57.2,42.1,29.98,NE,38,4.0,8.0,57,0.00,,,0.13,Wunderground v.1.15,2013-06-06 23:25:00,
2013-06-06 18:35:00,57.4,41.4,29.99,NNE,31,4.0,5.0,55,0.00,,,0.13,Wunderground v.1.15,2013-06-06 23:35:00,
2013-06-06 18:40:00,57.5,41.4,29.99,NNE,30,4.0,4.0,55,0.00,,,0.13,Wunderground v.1.15,2013-06-06 23:40:00,
2013-06-06 18:45:00,57.5,41.4,29.99,ENE,61,3.0,8.0,55,0.00,,,0.13,Wunderground v.1.15,2013-06-06 23:45:00,
2013-06-06 18:50:00,57.4,41.4,29.99,NE,49,3.0,8.0,55,0.00,,,0.13,Wunderground v.1.15,2013-06-06 23:50:00,
2013-06-06 18:55:00,57.3,40.8,29.99,NE,52,4.0,8.0,54,0.00,,,0.13,Wunderground v.1.15,2013-06-06 23:55:00,
2013-06-06 19:00:00,57.2,41.2,29.99,NNE,30,5.0,5.0,55,0.00,,,0.13,Wunderground v.1.15,2013-06-07 00:00:00,
2013-06-06 19:05:00,56.9,41.4,29.99,NE,52,4.0,8.0,56,0.00,,,0.13,Wunderground v.1.15,2013-06-07 00:05:00,
2013-06-06 19:15:00,56.7,41.6,29.99,East,91,3.0,8.0,57,0.00,,,0.13,Wunderground v.1.15,2013-06-07 00:15:00,
2013-06-06 19:20:00,56.6,42.0,29.99,NE,51,2.0,2.0,58,0.00,,,0.13,Wunderground v.1.15,2013-06-07 00:20:00,
2013-06-06 19:25:00,56.5,42.8,29.99,NE,44,1.0,8.0,60,0.00,,,0.13,Wunderground v.1.15,2013-06-07 00:25:00,
2013-06-06 19:30:00,56.4,42.7,29.98,NE,36,2.0,8.0,60,0.00,,,0.13,Wunderground v.1.15,2013-06-07 00:30:00,
2013-06-06 19:35:00,56.2,43.8,29.99,NE,52,3.0,8.0,63,0.00,,,0.13,Wunderground v.1.15,2013-06-07 00:35:00,
2013-06-06 19:40:00,55.9,43.9,29.99,NE,55,3.0,8.0,64,0.00,,,0.13,Wunderground v.1.15,2013-06-07 00:40:00,
2013-06-06 19:45:00,55.7,43.7,29.99,NE,36,2.0,8.0,64,0.00,,,0.13,Wunderground v.1.15,2013-06-07 00:45:00,
2013-06-06 19:50:00,55.6,44.0,29.99,ENE,70,2.0,2.0,65,0.00,,,0.13,Wunderground v.1.15,2013-06-07 00:50:00,
2013-06-06 19:55:00,55.6,44.4,29.99,ENE,70,1.0,8.0,66,0.00,,,0.13,Wunderground v.1.15,2013-06-07 00:55:00,
2013-06-06 20:00:00,55.6,44.4,29.99,ENE,70,0.0,8.0,66,0.00,,,0.13,Wunderground v.1.15,2013-06-07 01:00:00,
2013-06-06 20:05:00,55.6,45.6,29.99,ENE,70,0.0,8.0,69,0.00,,,0.13,Wunderground v.1.15,2013-06-07 01:05:00,
2013-06-06 20:10:00,55.5,47.0,29.99,ENE,70,0.0,8.0,73,0.00,,,0.13,Wunderground v.1.15,2013-06-07 01:10:00,
2013-06-06 20:15:00,55.1,47.3,29.99,ENE,70,0.0,8.0,75,0.00,,,0.13,Wunderground v.1.15,2013-06-07 01:15:00,
2013-06-06 20:20:00,54.8,47.4,29.99,ENE,70,0.0,8.0,76,0.00,,,0.13,Wunderground v.1.15,2013-06-07 01:20:00,
2013-06-06 20:25:00,54.6,45.8,29.99,NNE,29,1.0,8.0,72,0.00,,,0.13,Wunderground v.1.15,2013-06-07 01:25:00,
2013-06-06 20:30:00,55.2,44.4,29.98,NNE,16,3.0,8.0,67,0.00,,,0.13,Wunderground v.1.15,2013-06-07 01:30:00,
2013-06-06 20:35:00,55.7,44.5,29.98,NNE,33,3.0,8.0,66,0.00,,,0.13,Wunderground v.1.15,2013-06-07 01:35:00,
2013-06-06 20:40:00,55.6,44.4,29.98,NE,46,3.0,8.0,66,0.00,,,0.13,Wunderground v.1.15,2013-06-07 01:40:00,
2013-06-06 20:45:00,55.3,44.9,29.98,NE,56,3.0,8.0,68,0.00,,,0.13,Wunderground v.1.15,2013-06-07 01:45:00,
2013-06-06 20:50:00,55.3,45.3,29.98,NE,53,3.0,8.0,69,0.00,,,0.13,Wunderground v.1.15,2013-06-07 01:50:00,
2013-06-06 20:55:00,55.3,45.3,29.98,NNE,28,4.0,8.0,69,0.00,,,0.13,Wunderground v.1.15,2013-06-07 01:55:00,
2013-06-06 21:00:00,55.6,45.6,29.98,NE,40,5.0,5.0,69,0.00,,,0.13,Wunderground v.1.15,2013-06-07 02:00:00,
2013-06-06 21:05:00,55.8,45.8,29.98,NE,36,5.0,8.0,69,0.00,,,0.13,Wunderground v.1.15,2013-06-07 02:05:00,
2013-06-06 21:10:00,55.8,46.2,29.97,NE,44,5.0,8.0,70,0.00,,,0.13,Wunderground v.1.15,2013-06-07 02:10:00,
2013-06-06 21:15:00,55.7,46.4,29.97,NNE,23,5.0,8.0,71,0.00,,,0.13,Wunderground v.1.15,2013-06-07 02:15:00,
2013-06-06 21:25:00,55.7,46.4,29.97,NNE,30,4.0,8.0,71,0.00,,,0.13,Wunderground v.1.15,2013-06-07 02:25:00,
2013-06-06 21:35:00,56.2,45.8,29.98,NNE,17,4.0,8.0,68,0.00,,,0.13,Wunderground v.1.15,2013-06-07 02:35:00,
2013-06-06 21:40:00,56.6,45.8,29.98,NNE,14,5.0,8.0,67,0.00,,,0.13,Wunderground v.1.15,2013-06-07 02:40:00,
2013-06-06 21:45:00,56.8,46.0,29.98,NNE,20,5.0,8.0,67,0.00,,,0.13,Wunderground v.1.15,2013-06-07 02:45:00,
2013-06-06 21:50:00,56.7,45.9,29.98,NW,325,4.0,8.0,67,0.00,,,0.13,Wunderground v.1.15,2013-06-07 02:50:00,
2013-06-06 21:55:00,56.6,46.2,29.98,NNE,31,4.0,8.0,68,0.00,,,0.13,Wunderground v.1.15,2013-06-07 02:55:00,
2013-06-06 22:00:00,56.5,46.4,29.98,NE,35,3.0,8.0,69,0.00,,,0.13,Wunderground v.1.15,2013-06-07 03:00:00,
2013-06-06 22:05:00,56.2,46.2,29.98,NNE,20,2.0,8.0,69,0.00,,,0.13,Wunderground v.1.15,2013-06-07 03:05:00,
2013-06-06 22:15:00,55.9,46.3,29.99,North,5,2.0,4.0,70,0.00,,,0.13,Wunderground v.1.15,2013-06-07 03:15:00,
2013-06-06 22:20:00,55.8,46.2,29.99,North,9,3.0,3.0,70,0.00,,,0.13,Wunderground v.1.15,2013-06-07 03:20:00,
2013-06-06 22:25:00,55.7,46.1,29.99,NNE,25,2.0,8.0,70,0.00,,,0.13,Wunderground v.1.15,2013-06-07 03:25:00,
2013-06-06 22:35:00,55.5,46.2,29.99,NE,36,1.0,8.0,71,0.00,,,0.13,Wunderground v.1.15,2013-06-07 03:35:00,
2013-06-06 22:40:00,55.3,46.1,29.99,ENE,61,1.0,8.0,71,0.00,,,0.13,Wunderground v.1.15,2013-06-07 03:40:00,
2013-06-06 22:45:00,55.2,46.0,29.99,NNE,30,1.0,8.0,71,0.00,,,0.13,Wunderground v.1.15,2013-06-07 03:45:00,
2013-06-06 22:50:00,55.1,45.9,29.99,NE,41,1.0,8.0,71,0.00,,,0.13,Wunderground v.1.15,2013-06-07 03:50:00,
2013-06-06 22:55:00,55.1,45.9,29.99,East,84,1.0,8.0,71,0.00,,,0.13,Wunderground v.1.15,2013-06-07 03:55:00,
2013-06-06 23:00:00,55.0,45.4,29.99,ENE,71,0.0,8.0,70,0.00,,,0.13,Wunderground v.1.15,2013-06-07 04:00:00,
2013-06-06 23:05:00,55.0,45.8,29.99,NE,39,0.0,8.0,71,0.00,,,0.13,Wunderground v.1.15,2013-06-07 04:05:00,
2013-06-06 23:10:00,55.0,45.4,29.98,NNE,22,0.0,8.0,70,0.00,,,0.13,Wunderground v.1.15,2013-06-07 04:10:00,
2013-06-06 23:15:00,55.0,45.8,29.98,North,9,1.0,8.0,71,0.00,,,0.13,Wunderground v.1.15,2013-06-07 04:15:00,
2013-06-06 23:20:00,54.9,45.7,29.98,North,351,2.0,8.0,71,0.00,,,0.13,Wunderground v.1.15,2013-06-07 04:20:00,
2013-06-06 23:25:00,54.8,45.2,29.98,NNE,18,3.0,8.0,70,0.00,,,0.13,Wunderground v.1.15,2013-06-07 04:25:00,
2013-06-06 23:35:00,54.6,45.8,29.98,NNE,22,3.0,5.0,72,0.00,,,0.13,Wunderground v.1.15,2013-06-07 04:35:00,
2013-06-06 23:40:00,54.6,45.4,29.98,NNE,14,4.0,8.0,71,0.00,,,0.13,Wunderground v.1.15,2013-06-07 04:40:00,
2013-06-06 23:45:00,54.5,45.3,29.98,NE,34,4.0,8.0,71,0.00,,,0.13,Wunderground v.1.15,2013-06-07 04:45:00,
2013-06-06 23:50:00,54.5,45.3,29.97,NNE,13,5.0,8.0,71,0.00,,,0.13,Wunderground v.1.15,2013-06-07 04:50:00,
2013-06-06 23:55:00,54.4,45.2,29.98,NNE,13,5.0,8.0,71,0.00,,,0.13,Wunderground v.1.15,2013-06-07 04:55:00,